#timestamp,LO_Frequency,Hit 
1503331215.8,286046999.2,N
1503331235.6,286046999.5,N
1503331255.4,286046999.6,N
1503331275.2,286046999.5,N
1503331295.1,286046999.6,N
1503331296.0,286046999.6,N
1503331315.8,286046996.5,N
1503331335.6,286046996.6,N
1503331355.5,286046996.6,N
1503331375.3,286046996.6,N
1503331395.1,286046997.3,N
1503331415.9,286046996.9,N
1503331435.7,286046997.0,N
1503331455.5,286046997.0,N
1503331475.4,286046996.8,N
1503331495.2,286046997.1,N
1503331515.0,286046997.2,N
1503331515.9,286046997.2,N
1503331535.8,286046997.3,N
1503331555.6,286046997.3,N
1503331575.4,286046997.8,N
1503331595.2,286046997.5,N
1503331615.1,286046998.0,N
1503331616.0,286046998.0,N
1503331635.8,286046994.9,P
1503331655.7,286047000.9,N
1503331675.5,286046998.9,N
1503331695.3,286046999.3,N
1503331715.1,286046998.7,N
1503331735.9,286046998.4,N
1503331755.7,286046998.8,N
1503331775.5,286046998.8,N
1503331795.4,286046999.0,N
1503331815.2,286046999.3,N
1503331835.0,286046998.7,N
1503331835.9,286046998.7,N
1503331855.8,286046999.5,N
1503331875.6,286046997.1,N
1503331895.4,286046996.9,N
1503331915.3,286046996.9,N
1503331935.1,286046996.7,N
1503331936.0,286046996.7,N
1503331955.8,286046996.9,N
1503331975.6,286046999.5,N
1503331995.5,286046996.8,N
1503332015.3,286046996.8,N
1503332035.1,286046997.1,N
1503332055.9,286046997.3,N
1503332075.7,286046997.3,N
1503332095.5,286046997.1,N
1503332115.4,286046996.8,N
1503332135.2,286046997.2,N
1503332155.0,286046997.2,N
1503332155.9,286046997.2,N
1503332175.8,286046997.2,N
1503332195.6,286046997.3,N
1503332215.4,286046997.0,P
1503332235.3,286047001.1,N
1503332255.1,286046998.4,N
1503332256.0,286046998.4,N
1503332275.8,286047001.1,N
1503332295.7,286047000.8,N
1503332315.5,286046998.6,N
1503332335.3,286046999.4,N
1503332355.1,286046998.3,N
1503332375.9,286046998.7,N
1503332395.7,286046998.1,N
1503332415.5,286046998.2,N
1503332435.4,286046998.2,N
1503332455.2,286046998.8,N
1503332475.0,286046998.9,N
1503332475.9,286046998.9,N
1503332495.8,286046999.2,N
1503332515.6,286046998.1,N
1503332535.4,286046998.4,N
1503332555.3,286047001.1,N
1503332575.1,286047001.1,N
1503332576.0,286047001.1,N
1503332595.8,286046998.6,N
1503332615.7,286046998.5,N
1503332635.5,286047001.0,N
1503332655.3,286046998.1,N
1503332675.1,286047001.2,N
1503332695.9,286047001.1,N
1503332715.7,286047001.1,N
1503332735.5,286047001.1,N
1503332755.4,286047000.3,N
1503332775.2,286047000.3,N
1503332795.0,286046999.9,N
1503332795.9,286046999.9,N
1503332815.8,286047000.9,N
1503332835.6,286047000.9,N
1503332855.4,286047000.5,N
1503332875.3,286046999.7,N
1503332895.1,286047000.3,N
1503332896.0,286047000.3,N
1503332915.8,286047000.0,N
1503332935.7,286046999.9,N
1503332955.5,286047000.2,N
1503332975.3,286047001.1,N
1503332995.1,286047002.5,N
1503333015.9,286047002.2,N
1503333035.7,286047002.3,N
1503333055.5,286047002.3,N
1503333075.4,286046999.7,N
1503333095.2,286047000.2,N
1503333115.0,286047001.5,N
1503333115.9,286047001.5,N
1503333135.8,286047001.5,N
1503333155.6,286047004.0,P
1503333175.4,286047003.7,N
1503333195.3,286047001.7,N
1503333215.1,286047003.8,N
1503333235.8,286047004.2,P
1503333255.7,286046999.7,N
1503333275.5,286047002.8,N
1503333295.3,286047002.5,N
1503333315.2,286047001.9,N
1503333335.9,286047002.2,N
1503333355.7,286047002.4,N
1503333375.6,286047002.2,N
1503333395.4,286047001.8,N
1503333415.2,286047004.0,P
1503333435.1,286046999.7,N
1503333436.0,286046999.7,N
1503333455.8,286047000.5,N
1503333475.6,286047002.8,N
1503333495.5,286047002.0,N
1503333515.3,286047002.6,N
1503333535.1,286047002.0,N
1503333555.9,286047001.8,N
1503333575.7,286047001.4,N
1503333595.5,286047004.4,P
1503333615.4,286046999.7,N
1503333635.2,286047002.6,N
1503333655.0,286047002.7,N
1503333655.9,286047002.7,N
1503333675.8,286047004.0,N
1503333695.6,286047001.7,N
1503333715.4,286047004.3,P
1503333735.3,286046999.8,N
1503333755.1,286047002.4,N
1503333756.0,286047002.4,N
1503333775.8,286047002.3,N
1503333795.7,286047001.7,N
1503333815.5,286047002.2,N
1503333835.3,286047001.7,N
1503333855.2,286047004.3,P
1503333875.9,286046999.8,N
1503333895.7,286047000.2,N
1503333915.6,286046999.8,N
1503333935.4,286047000.1,N
1503333955.2,286047001.6,N
1503333975.0,286047001.6,N
1503333975.9,286047001.6,N
1503333995.8,286047001.4,N
1503334015.6,286047003.5,N
1503334035.4,286047003.1,N
1503334055.3,286047003.1,N
1503334075.1,286047005.9,P
1503334095.8,286047004.1,N
1503334115.7,286047003.5,N
1503334135.5,286047003.5,N
1503334155.3,286047005.2,P
1503334175.2,286046999.8,N
1503334195.0,286047001.9,N
1503334195.9,286047001.9,N
1503334215.7,286047001.9,N
1503334235.6,286047001.5,N
1503334255.4,286047004.3,N
1503334275.2,286047004.1,N
1503334295.1,286047003.1,N
1503334296.0,286047003.1,N
1503334315.8,286047003.3,N
1503334335.6,286047005.9,P
1503334355.5,286047001.8,N
1503334375.3,286047001.5,N
1503334395.1,286047003.7,N
1503334415.9,286047003.4,N
1503334435.7,286047003.2,N
1503334455.5,286047005.6,P
1503334475.4,286046999.8,N
1503334495.2,286047001.9,N
1503334515.0,286047001.4,N
1503334515.9,286047001.4,N
1503334535.8,286047004.0,N
1503334555.6,286047004.3,N
1503334575.4,286047003.7,N
1503334595.3,286047006.0,P
1503334615.1,286047002.5,N
1503334616.0,286047002.5,N
1503334635.8,286047001.6,N
1503334655.7,286047004.1,N
1503334675.5,286047003.5,N
1503334695.3,286047006.0,P
1503334715.2,286047002.7,N
1503334735.9,286046999.8,N
1503334755.7,286047002.2,N
1503334775.6,286047001.6,N
1503334795.4,286047001.4,N
